{"data":{"norad_id":66360,"intl_designator":"2025-254N","name":"STARLINK-35823","alt_names":[],"object_type":"PAYLOAD","status":"ACTIVE","operator":null,"country":"US","launch_date":"2025-11-06","launch_site_code":"AFWTR","launch_vehicle":null,"mission":null,"orbit_class":"UNKNOWN","rcs_meters":null,"size_class":null,"mass_kg":null,"dimensions":null,"purposes":["comms"],"wikipedia_slug":null,"has_3d_model":false,"image_url":null,"decayed_at":null,"tle_current":{"epoch":"2026-05-24T16:11:53.008512Z","epoch_age_seconds":99268,"freshness":"FRESH","line1":"1 66360U 25254N   26144.67491908  .00014150  00000+0  48922-3 0  9998","line2":"2 66360  53.1585 239.2007 0001399  87.4013 272.7148 15.30183422 30618","mean_motion":15.30183422,"eccentricity":0.0001399,"inclination_deg":53.1585,"raan_deg":239.2007,"arg_perigee_deg":87.4013,"mean_anomaly_deg":272.7148,"bstar":0.00048922,"rev_number":3061,"period_min":94.106365243317,"perigee_km":474.30577790654,"apogee_km":476.22335966548,"semimajor_km":6853.401568786,"source":"CELESTRAK","updated_at":"2026-05-25T13:38:21.176441Z"}}}